METEOR 2-7 DEB, 43302

Orbit data source: Space-Track

METEOR 2-7 DEB, 43302 is space debris in LEO originally from a launch on Thu, 14 May 1981 UTC launched from the Plesetsk Missile And Space Complex (PKMTR). Debris objects in space refer to the collection of defunct objects orbiting the Earth. Examples of debris include non-operational satellites, rocket bodies, and fragments generated from explosions, collisions, or faulty payload assembly.

Loading next visibility...
Identifier
43302, 1981-043Z
Orbit
LEO
Country
Flag of CISCIS
Related business
Manufacturer
Unknown
Mission
Spacecraft
Bus & Motor
Unknown
Mass
Unknown
Launch date (UTC)
1981-05-14 (45 years ago)
Launch vehicle
Unknown
Launch site
Plesetsk Missile And Space Complex (PKMTR)
Object type
Payload
Rocket body
Debris
Shape & HBR
Unknown shape, 0.1 m
Radar Cross Section
Small (<0.1 m²)

Expand to show TLE details & history
Last TLE update: 2 days ago

TLE from 2 days ago
0 METEOR 2-7 DEB
1 43302U 81043Z   26262.49590993  .00001587  00000-0  51405-3 0  9993
2 43302  81.2691 320.0023 0050115 106.1575 254.5136 14.37896805545144
Epoch: 2026-09-19T11:54Z
TLE epoch observation values (Epoch: 2026-09-19T11:54:06.617Z)
Latitude
-0.00001°
Longitude
143.07111°
Altitude
778.122 km
Speed
7.46 km/s
True Right ascension
21h 20m 00s
True Declination
0° 00' 00"
Sunlit
Object was in full shadow at epoch
Visualization orbit readout
Latitude
Unknown
Longitude
Unknown
Altitude
Unknown
Speed
Unknown
Apparent Right ascension
Unknown
Apparent Declination
Unknown
Sunlit
N/A
Visualization observer readout
Local Sidereal Time
04:02:09
Azimuth
Unknown
Elevation
Unknown
Doppler factor
Unknown
Orbital elements
Apogee altitude
798.377 km
Perigee altitude
726.806 km
Semi-major axis
7,140.729 km
Eccentricity
0.00501
Inclination
81.2691°
RAAN
320.0023°
Arg. of periapsis
106.1575°
True anomaly
253.96111°
Mean anomaly
254.5136°
Eccentric anomaly
254.23726°
Mean motion
3.59691 °/min
Orbital period
100.09 mins
BSTAR
0.00051405
Loading maneuver chart data...
Computing Atmospheric mass density...

Documentation

Showing up to 5 results
|